Probability
0 0 0 0 0 0 0 0 0 0 0 0 0 0 0 0 0 0 0 0 0 0 0 0 0 0 0 0 0 0 0 0 0 0 0 0 0 0 0 0 0 0 0
0 0 0 0 0 0 0 0 0 0 0 0 0 0 0 0 0 0 0 0 0 0 0 0 0 0 0 0 0 0 0 0 0 0 0 0 0 0 0 0 0 0 0
0 0 0 0 0 0 0 0 0 0 0 0 0 0 0 0 0 0 0 0 0 0 0 0 0 0 0 0 0 0 0 0 0 0 0 0 0 0 0 0 0 0 0
0 0 0 0 0 0 0 0 0 0 0 0 0 0 0 0 0 0 0 0 0 0 0 0 0 0 0 0 0 0 0 0 0 0 0 0 0 0 0 0 0 0 0
0 0 0 0 0 0 0 0 0 0 0 0 0 0 0 0 0 0 0 0 0 0 0 0 0 0 0 0 0 0 0 0 0 0 0 0 0 0 0 0 0 0 0
0 0 0 0 0 0 0 0 0 0 0 0 0 0 0 0 0 0 0 0 0 0 0 0 0 0 0 0 0 0 0 0 0 0 0 0 0 0 0 0 0 0 0
0 0 0 0 0 0 0 0 0 0 0 0 0 0 0 0 0 0 0 0 0 0 0 0 0 0 0 0 0 0 0 0 0 0 0 0 0 0 0 0 0 0 0
0 0 0 0 0 0 0 0 0 0 0 0 0 0 0 0 0 0 0 0 0 0 0 0 0 0 0 0 0 0 0 0 0 0 0 0 0 0 0 0 0 0 0
0 0 0 0 0 0 0 0 0 0 0 0 0 0 0 0 0 0 0 0 0 0 0 0 0 0 0 0 0 0 0 0 0 0 0 0 0 0 0 0 0 0 0
0 0 0 0 0 0 0 0 0 0 0 0 0 0 0 0 0 0 0 0 0 0 0 0 0 0 0 0 0 0 0 0 0 0 0 0 0 0 0 0 0 0 0
0 0 0 0 0 0 0 0 0 0 0 0 0 0 0 0 0 0 0 0 0 0 0 0 0 0 0 0 0 0 0 0 0 0 0 0 0 0 0 0 0 0 0
0 0 0 0 0 0 0 0 0 0 0 0 0 0 0 0 0 0 0 0 0 0 0 0 0 0 0 0 0 0 0 0 0 0 0 0 0 0 0 0 0 0 0
0 0 0 0 0 0 0 0 0 0 0 0 0 0 0 0 0 0 0 0 0 0 0 0 0 0 0 0 0 0 0 0 0 0 0 0 0 0 0 0 0 0 0
0 0 0 0 0 0 0 0 0 0 0 0 0 0 0 0 0 0 0 0 0 0 0 0 0 0 0 0 0 0 0 0 0 0 0 0 0 0 0 0 0 0 0
0 0 0 0 0 0 0 0 0 0 0 0 0 0 0 0 0 0 0 0 0 0 0 0 0 0 0 0 0 0 0 0 0 0 0 0 0 0 0 0 0 0 0
0 0 0 0 0 0 0 0 0 0 0 0 0 0 0 0 0 0 0 0 0 0 0 0 0 0 0 0 0 0 0 0 0 0 0 0 0 0 0 0 0 0 0
0 0 0 0 0 0 0 0 0 0 0 0 0 0 0 0 0 0 0 0 0 0 0 0 0 0 0 0 0 0 0 0 0 0 0 0 0 0 0 0 0 0 0
0 0 0 0 0 0 0 0 0 0 0 0 0 0 0 0 0 0 0 0 0 0 0 0 0 0 0 0 0 0 0 0 0 0 0 0 0 0 0 0 0 0 0
0 0 0 0 0 0 0 0 0 0 0 0 0 0 0 0 0 0 0 0 0 0 0 0 0 0 0 0 0 0 0 0 0 0 0 0 0 0 0 0 0 0 0
0 0 0 0 0 0 0 0 0 0 0 0 0 0 0 0 0 0 0 0 0 0 0 0 0 0 0 0 0 0 0 0 0 0 0 0 0 0 0 0 0 0 0
0 0 0 0 0 0 0 0 0 0 0 0 0 0 0 0 0 0 0 0 0 0 0 0 0 0 0 0 0 0 0 0 0 0 0 0 0 0 0 0 0 0 0
0 0 0 0 0 0 0 0 0 0 0 0 0 0 0 0 0 0 0 0 0 0 0 0 0 0 0 0 0 0 0 0 0 0 0 0 0 0 0 0 0 0 0
0 0 0 0 0 0 0 0 0 0 0 0 0 0 0 0 0 0 0 0 0 0 0 0 0 0 0 0 0 0 0 0 0 0 0 0 0 0 0 0 0 0 0
0 0 0 0 0 0 0 0 0 0 0 0 0 0 0 0 0 0 0 0 0 0 0 0 0 0 0 0 0 0 0 0 0 0 0 0 0 0 0 0 0 0 0
0 0 0 0 0 0 0 0 0 0 0 0 0 0 0 0 0 0 0 0 0 0 0 0 0 0 0 0 0 0 0 0 0 0 0 0 0 0 0 0 0 0 0
0 0 0 0 0 0 0 0 0 0 0 0 0 0 0 0 0 0 0 0 0 0 0 0 0 0 0 0 0 0 0 0 0 0 0 0 0 0 0 0 0 0 0
Wind_Speed
6 7 8 9 10 11 12 14 13 12 12 14 14 14 15 16 17 17 17 16 18 16 15 16 16 14 11 10 9 9 10 9 12 8 6 6 7 8 10 8 9 10 11
5 6 7 8 8 9 11 12 11 12 12 13 13 14 15 16 16 18 19 18 18 18 17 16 17 14 15 11 10 11 10 10 10 12 8 7 9 8 9 10 11 12 9
5 6 7 8 8 9 10 10 10 11 11 11 12 14 15 15 15 17 17 18 18 18 17 17 16 16 16 13 12 11 10 10 10 10 10 8 8 8 9 10 12 10 12
6 6 8 9 9 9 10 9 9 10 11 11 12 13 13 13 13 14 15 16 16 16 16 16 16 17 16 15 13 13 11 11 10 9 10 9 9 8 7 9 10 8 10
7 8 9 9 9 9 9 9 9 9 10 10 11 11 11 11 11 12 13 14 14 14 14 15 16 20 23 18 14 12 12 11 10 10 11 10 10 8 8 8 10 8 8
8 9 10 10 10 10 9 9 9 9 9 9 10 11 11 10 18 24 17 13 13 14 14 13 15 21 26 31 30 26 21 15 13 12 11 12 11 10 8 8 8 9 10
9 10 11 11 10 9 9 9 9 9 9 10 10 10 11 13 22 25 27 14 13 13 13 12 12 15 22 16 22 29 26 29 26 16 14 13 11 9 9 10 10 11 12
10 11 11 10 10 9 9 10 10 9 9 9 9 10 10 12 21 24 25 16 11 13 13 13 13 13 14 15 13 14 14 15 18 14 12 12 11 10 10 12 12 12 11
12 11 10 9 10 10 10 11 10 9 9 9 8 9 9 11 19 22 22 9 9 12 13 13 13 13 21 25 16 14 14 13 19 25 23 21 24 24 18 10 9 10 12
12 11 10 10 11 12 12 11 10 9 9 8 8 8 9 8 15 20 21 7 9 9 9 12 21 20 23 26 16 13 14 13 11 11 15 17 15 15 21 12 7 9 9
12 11 11 10 11 12 11 10 10 8 8 8 8 7 7 9 13 19 20 8 8 8 8 9 11 24 26 26 22 13 16 14 9 10 9 8 7 7 8 8 7 8 9
12 12 11 11 10 10 11 10 9 8 8 8 7 7 5 7 11 13 19 18 14 9 8 7 10 21 24 24 19 18 21 18 7 7 7 7 7 6 6 7 8 9 9
12 12 11 11 10 10 10 11 9 8 7 7 6 6 5 4 7 15 17 18 19 11 8 13 15 19 20 16 20 21 16 8 6 6 7 7 6 6 5 5 6 7 8
13 12 11 11 11 10 8 7 8 7 7 7 6 6 5 4 4 4 5 7 12 11 8 13 18 19 15 13 12 10 7 6 6 6 6 5 4 4 5 5 5 5 6
13 12 11 10 11 10 9 8 9 8 9 9 7 6 6 6 7 11 7 5 5 6 6 4 5 5 6 6 5 6 5 5 6 5 5 5 5 5 5 5 5 5 7
12 11 9 9 9 9 10 9 11 13 17 17 16 13 9 13 15 14 14 14 14 13 9 5 6 7 7 7 6 6 6 6 6 5 5 5 5 6 6 5 6 6 8
13 12 10 9 10 9 9 9 10 10 13 15 16 17 15 15 15 14 13 13 14 14 8 5 6 6 6 6 6 6 6 5 5 5 5 5 5 6 7 7 7 7 8
12 14 13 10 10 10 9 9 9 9 9 7 9 14 14 14 14 13 12 10 8 8 5 5 6 6 5 5 6 5 5 5 5 5 5 6 6 6 7 7 7 8 9
12 10 10 10 9 9 9 9 8 8 8 7 5 6 10 11 11 11 10 6 5 5 5 5 5 5 5 5 5 5 5 5 5 5 6 6 6 6 7 8 8 13 11
11 17 16 11 10 9 8 8 8 8 7 6 6 5 4 4 3 4 5 4 4 4 4 5 4 5 5 5 5 5 5 5 6 6 6 6 6 7 8 9 8 8 8
10 12 17 12 9 9 8 8 8 7 7 6 5 5 7 4 4 4 4 4 4 4 4 4 4 5 5 4 4 5 6 6 5 6 6 6 6 7 7 7 8 9 8
9 9 9 10 9 8 8 7 7 7 7 7 5 5 8 5 3 3 3 3 3 3 4 4 4 4 5 5 5 5 6 6 6 6 6 6 6 7 7 8 8 8 8
9 10 10 9 8 11 10 7 6 6 6 5 4 3 3 3 3 2 2 2 2 3 3 3 4 3 4 4 4 5 6 6 6 6 6 7 7 7 7 8 9 9 9
9 10 10 10 9 8 7 7 6 6 5 4 3 3 2 2 2 2 2 2 2 2 2 2 3 4 5 4 4 4 5 6 6 6 8 8 7 7 7 8 8 9 9
9 9 9 9 8 8 7 7 6 5 4 3 3 2 2 2 1 1 1 1 2 2 2 2 2 3 5 5 5 5 9 12 11 8 6 6 7 8 8 8 8 8 8
9 9 8 7 7 7 6 6 6 5 4 3 2 2 1 1 1 1 1 1 1 1 2 2 3 4 4 4 6 9 12 13 13 12 6 5 6 7 7 7 9 8 8
Wind_Direction
241 239 242 245 243 243 243 244 243 242 236 234 230 223 219 216 214 216 218 214 218 219 216 216 217 212 212 213 211 213 218 221 242 246 239 239 239 247 258 256 255 255 259
260 255 255 256 255 252 252 252 247 245 240 236 233 229 225 220 216 216 219 217 218 220 218 216 217 212 214 212 212 216 219 219 231 246 246 243 243 244 249 253 260 260 252
290 276 271 268 263 259 258 258 253 249 245 239 234 234 231 225 219 218 218 218 218 219 217 216 215 211 215 213 214 218 221 225 227 239 248 245 249 249 253 258 257 257 260
307 295 283 275 269 265 264 262 259 254 250 245 239 237 234 229 223 219 218 219 219 219 217 215 214 213 215 213 216 219 219 223 225 235 245 247 249 244 244 253 260 251 257
305 297 288 283 280 275 272 268 264 259 255 250 246 242 236 229 225 219 217 218 218 219 217 215 215 217 219 218 218 217 217 220 224 233 241 245 246 242 242 245 257 260 253
302 294 291 287 283 277 273 271 268 265 260 254 248 245 239 234 239 235 226 218 217 217 218 217 219 226 229 229 228 226 219 218 223 229 236 240 243 240 245 247 256 264 268
297 292 290 287 285 281 278 278 274 270 263 258 253 247 244 240 243 244 239 224 215 216 216 214 218 223 227 228 235 238 235 233 231 230 237 240 243 240 243 251 252 255 262
297 293 291 292 293 293 291 286 282 275 268 263 258 251 248 245 248 248 245 234 218 215 214 213 215 219 220 220 222 230 235 239 241 239 237 243 247 246 241 249 256 262 262
297 295 297 300 300 298 293 288 285 281 275 267 263 255 250 250 251 252 246 230 221 218 214 212 214 217 226 228 224 225 232 237 246 248 247 250 253 258 258 257 258 262 267
298 299 301 301 299 296 292 290 286 280 277 274 269 260 253 250 253 254 248 229 223 218 212 214 222 223 227 231 227 222 229 232 231 243 250 257 260 264 268 261 252 261 270
301 301 299 296 294 293 293 290 288 283 280 276 273 266 256 252 257 255 251 232 220 219 215 213 219 229 231 232 231 226 234 234 226 232 240 242 244 244 247 244 237 241 256
300 299 298 296 296 298 295 293 289 286 283 280 277 275 261 256 256 256 253 246 232 219 218 214 217 226 232 235 236 237 240 242 228 226 233 238 239 240 240 239 237 236 240
302 300 299 298 297 296 295 294 293 287 281 279 276 276 272 251 254 257 256 252 244 229 216 220 223 229 231 235 239 240 241 232 219 227 236 241 236 238 242 246 247 247 251
302 301 300 300 299 296 291 287 286 284 280 278 275 274 271 259 245 240 244 250 247 240 226 228 231 232 229 226 232 238 229 219 221 229 236 239 238 241 246 247 255 257 264
303 301 301 298 297 297 291 284 282 271 272 279 272 262 267 266 253 249 237 226 221 227 212 203 211 213 214 214 213 215 215 222 235 226 230 238 245 252 255 250 252 256 260
305 303 300 299 297 294 293 291 281 277 286 284 278 273 264 264 268 262 253 243 236 229 224 212 215 214 217 217 215 213 212 217 220 223 228 236 246 253 261 259 257 257 263
301 301 301 297 296 295 293 294 297 293 285 285 283 281 276 272 269 260 253 245 236 231 227 218 218 214 214 211 208 209 214 217 215 222 231 236 244 254 261 263 262 262 264
300 300 300 296 294 293 291 290 290 292 295 287 283 281 279 275 268 257 248 243 234 227 220 220 216 209 206 207 208 211 214 215 217 224 230 235 241 252 260 263 263 262 268
301 299 297 294 292 291 290 289 287 286 285 286 283 279 275 274 269 255 244 235 222 217 217 215 208 204 204 206 208 209 212 218 223 226 232 237 240 248 257 260 263 269 271
299 300 303 300 298 296 295 293 291 289 287 284 280 275 271 263 250 244 235 224 218 214 212 210 207 202 202 203 203 206 216 224 227 231 237 240 242 246 254 259 262 266 267
300 302 305 304 300 298 295 291 289 288 286 284 278 273 271 255 245 238 228 218 216 212 206 206 204 201 202 200 202 209 219 228 231 234 240 243 244 250 254 258 261 262 266
301 303 302 300 299 296 294 291 289 287 286 285 286 283 279 268 248 233 225 220 218 208 199 198 202 202 201 201 205 213 224 231 234 237 241 245 247 251 256 259 261 263 265
302 302 302 300 299 300 301 295 292 289 287 285 281 275 268 258 244 228 220 217 215 208 198 196 202 209 210 209 210 214 225 233 236 237 244 251 254 255 257 260 262 264 266
302 302 302 302 301 301 301 299 296 292 288 283 277 270 259 256 243 224 205 211 215 206 195 196 206 214 217 221 224 226 231 239 240 238 241 248 254 259 261 262 263 265 266
303 303 302 301 302 304 303 301 298 295 290 284 279 271 261 250 230 209 202 211 214 207 205 209 214 219 223 230 237 244 250 257 261 259 247 248 254 258 262 264 266 267 264
304 303 303 303 303 304 304 302 301 300 296 291 283 267 258 247 217 206 211 208 211 213 217 224 226 232 239 244 247 254 262 266 268 270 269 255 256 262 266 268 270 269 268